Location: Arroyo de Valdeoliva
(40.1604°N, 4.9878°W)
Time: 03:51:19
(UTC+00:00)

Okean 1 - Pass Details

Date: 11 December 2025
Orbit: 465 x 485 km, 82.5° (Epoch: 13 January)

Event Time Altitude Azimuth Distance (km) Brightness Sun altitude
Rises 18:28:29 0° 175° (S) 2,527 6.9 -17.4°
Maximum altitude 18:34:07 51° 94° (E) 609 3.1 -18.4°
Enters shadow 18:34:08 51° 92° (E) 609 3.1 -18.4°
